Location: Kumla
(59.1265°N, 15.1401°E)
Time: 21:24:51
(UTC+01:00)

Explorer 7 - Visible Passes

Search period start: 06 December 2023 00:00
Search period end: 16 December 2023 00:00
Orbit: 472 x 640 km, 50.3° (Epoch: 06 December)

Date Brightness Start Highest point End Pass type
(mag) Time Alt. Az. Time Alt. Az. Time Alt. Az.
06 Dec 9.1 15:57:46 10° S 15:59:35 13° SSE 16:01:22 10° SE visible
06 Dec 8.5 17:35:44 10° SW 17:38:33 21° S 17:39:59 17° SE visible
06 Dec 9.5 19:15:05 10° WSW 19:15:45 13° SW 19:15:45 13° SW visible
07 Dec 9.0 15:53:38 10° SSW 15:55:50 15° SSE 15:58:00 10° ESE visible
07 Dec 8.5 17:32:00 10° SW 17:34:51 21° S 17:36:36 15° SE visible
07 Dec 9.4 19:11:36 10° WSW 19:12:23 13° SW 19:12:23 13° SW visible
08 Dec 8.6 17:28:18 10° SW 17:31:08 21° S 17:33:16 13° SE visible
08 Dec 9.4 19:08:11 10° SW 19:09:02 12° SW 19:09:02 12° SW visible
09 Dec 8.7 17:24:37 10° SW 17:27:24 20° S 17:29:58 11° SE visible
09 Dec 9.5 19:04:56 10° SW 19:05:44 11° SW 19:05:44 11° SW visible
10 Dec 8.8 17:20:58 10° WSW 17:23:39 19° S 17:26:20 10° SE visible
11 Dec 9.0 17:17:20 10° WSW 17:19:52 18° SSW 17:22:24 10° SSE visible
12 Dec 9.2 17:13:44 10° WSW 17:16:04 16° SSW 17:18:23 10° SSE visible
13 Dec 9.4 17:10:13 10° SW 17:12:14 14° SSW 17:14:15 10° S visible
14 Dec 9.5 17:06:51 10° SW 17:08:22 12° SSW 17:09:54 10° S visible
15 Dec 9.9 17:04:01 10° SW 17:04:29 10° SSW 17:04:57 10° SSW visible
